• In Czech Republic
  • List of Countries
  • For 7 days
  • Water Temperature
  • Satellite Maps
  • Weather Map
  • Weather Widgets
  • user-avatar
    Login

    Hourly Weather Emona

    Today, 15 November, Thursday

    Time Temperature Precipitation Wind Pressure Humidity
    00:00 +9°C° 0 mm 2 mps 766 mmHg 77%
    01:00 +9°C° 0 mm 2 mps 766 mmHg 78%
    02:00 +9°C° 0 mm 2 mps 766 mmHg 79%
    03:00 +9°C° 0.2 mm 3 mps 766 mmHg 81%
    04:00 +7°C° 0.2 mm 4 mps 766 mmHg 83%
    05:00 +7°C° 0.2 mm 5 mps 765 mmHg 84%
    06:00 +7°C° 0.9 mm 5 mps 765 mmHg 84%
    07:00 +7°C° 0.9 mm 6 mps 766 mmHg 83%
    08:00 +7°C° 0.9 mm 6 mps 766 mmHg 83%
    09:00 +8°C° 0.3 mm 6 mps 766 mmHg 77%
    10:00 +8°C° 0.3 mm 6 mps 766 mmHg 72%
    11:00 +9°C° 0.3 mm 6 mps 766 mmHg 66%
    12:00 +10°C° 0.1 mm 6 mps 766 mmHg 64%
    13:00 +10°C° 0.1 mm 6 mps 766 mmHg 61%
    14:00 +11°C° 0.1 mm 7 mps 766 mmHg 59%
    15:00 +10°C° 0.1 mm 7 mps 766 mmHg 62%
    16:00 +9°C° 0.1 mm 6 mps 766 mmHg 65%
    17:00 +9°C° 0.1 mm 6 mps 766 mmHg 68%
    18:00 +8°C° 0 mm 6 mps 766 mmHg 71%
    19:00 +7°C° 0 mm 6 mps 766 mmHg 74%
    20:00 +7°C° 0 mm 6 mps 766 mmHg 77%
    21:00 +7°C° 0 mm 6 mps 766 mmHg 79%
    22:00 +5°C° 0 mm 6 mps 766 mmHg 80%
    23:00 +6°C° 0 mm 5 mps 766 mmHg 82%

    Tomorrow, 16 November, Friday

    Time Temperature Precipitation Wind Pressure Humidity
    00:00 +6°C° 0 mm 5 mps 766 mmHg 83%
    01:00 +5°C° 0 mm 5 mps 767 mmHg 85%
    02:00 +4°C° 0 mm 6 mps 767 mmHg 87%
    03:00 +4°C° 0 mm 6 mps 767 mmHg 87%
    04:00 +3°C° 0 mm 6 mps 767 mmHg 87%
    05:00 +3°C° 0 mm 6 mps 767 mmHg 87%
    06:00 +3°C° 0 mm 6 mps 767 mmHg 85%
    07:00 +3°C° 0 mm 6 mps 768 mmHg 84%
    08:00 +3°C° 0 mm 6 mps 768 mmHg 82%
    09:00 +4°C° 0 mm 6 mps 768 mmHg 79%
    10:00 +5°C° 0 mm 6 mps 769 mmHg 75%
    11:00 +5°C° 0 mm 6 mps 769 mmHg 71%
    12:00 +7°C° 0 mm 6 mps 769 mmHg 68%
    13:00 +7°C° 0 mm 6 mps 769 mmHg 65%
    14:00 +6°C° 0 mm 7 mps 769 mmHg 62%
    15:00 +7°C° 0 mm 6 mps 769 mmHg 64%
    16:00 +5°C° 0 mm 6 mps 769 mmHg 67%
    17:00 +4°C° 0 mm 6 mps 769 mmHg 70%
    18:00 +4°C° 0 mm 6 mps 770 mmHg 72%
    19:00 +3°C° 0 mm 6 mps 770 mmHg 73%
    20:00 +2°C° 0 mm 6 mps 771 mmHg 75%
    21:00 +2°C° 0 mm 5 mps 771 mmHg 76%
    22:00 +2°C° 0 mm 5 mps 771 mmHg 78%
    23:00 +1°C° 0 mm 5 mps 771 mmHg 79%

    Day after tomorrow, 17 November, Saturday

    Time Temperature Precipitation Wind Pressure Humidity
    00:00 +1°C° 0 mm 5 mps 771 mmHg 80%
    01:00 +1°C° 0 mm 5 mps 771 mmHg 81%
    02:00 +1°C° 0 mm 5 mps 771 mmHg 81%
    03:00 0°C° 0 mm 5 mps 771 mmHg 83%
    04:00 0°C° 0 mm 5 mps 771 mmHg 84%
    05:00 0°C° 0 mm 4 mps 771 mmHg 85%
    06:00 0°C° 0 mm 4 mps 772 mmHg 85%
    07:00 0°C° 0 mm 4 mps 772 mmHg 84%
    08:00 0°C° 0 mm 5 mps 772 mmHg 83%
    09:00 +1°C° 0 mm 5 mps 772 mmHg 80%
    10:00 +2°C° 0 mm 5 mps 772 mmHg 76%
    11:00 +3°C° 0 mm 5 mps 772 mmHg 72%
    12:00 +5°C° 0 mm 5 mps 772 mmHg 71%
    13:00 +5°C° 0 mm 5 mps 772 mmHg 70%
    14:00 +5°C° 0 mm 5 mps 772 mmHg 70%
    15:00 +5°C° 0 mm 5 mps 772 mmHg 72%
    16:00 +3°C° 0 mm 5 mps 772 mmHg 74%
    17:00 +3°C° 0 mm 5 mps 772 mmHg 77%
    18:00 +2°C° 0 mm 5 mps 772 mmHg 77%
    19:00 +2°C° 0 mm 5 mps 772 mmHg 78%
    20:00 +2°C° 0 mm 5 mps 772 mmHg 79%
    21:00 +1°C° 0 mm 5 mps 773 mmHg 78%
    22:00 +1°C° 0 mm 5 mps 773 mmHg 77%
    23:00 +1°C° 0 mm 5 mps 773 mmHg 76%

    18 November, Sunday

    Time Temperature Precipitation Wind Pressure Humidity
    00:00 +1°C° 0 mm 4 mps 773 mmHg 75%
    01:00 0°C° 0 mm 4 mps 772 mmHg 75%
    02:00 0°C° 0 mm 4 mps 772 mmHg 74%
    03:00 0°C° 0 mm 4 mps 772 mmHg 74%
    04:00 -1°C° 0 mm 4 mps 772 mmHg 74%
    05:00 -1°C° 0 mm 4 mps 771 mmHg 74%
    06:00 -1°C° 0 mm 4 mps 771 mmHg 74%
    07:00 -1°C° 0 mm 4 mps 771 mmHg 73%
    08:00 -1°C° 0 mm 4 mps 771 mmHg 73%
    09:00 +1°C° 0 mm 4 mps 771 mmHg 66%
    10:00 +3°C° 0 mm 4 mps 771 mmHg 60%
    11:00 +4°C° 0 mm 4 mps 771 mmHg 54%
    12:00 +5°C° 0 mm 3 mps 770 mmHg 51%
    13:00 +7°C° 0 mm 3 mps 770 mmHg 49%
    14:00 +8°C° 0 mm 3 mps 769 mmHg 46%
    15:00 +7°C° 0 mm 3 mps 769 mmHg 50%
    16:00 +5°C° 0 mm 3 mps 768 mmHg 53%
    17:00 +4°C° 0 mm 3 mps 768 mmHg 56%
    18:00 +5°C° 0 mm 2 mps 767 mmHg 58%
    19:00 +4°C° 0 mm 2 mps 767 mmHg 60%
    20:00 +4°C° 0 mm 2 mps 767 mmHg 62%
    21:00 +3°C° 0 mm 2 mps 766 mmHg 62%
    22:00 +3°C° 0 mm 2 mps 766 mmHg 63%
    23:00 +3°C° 0 mm 2 mps 766 mmHg 64%

    19 November, Monday

    Time Temperature Precipitation Wind Pressure Humidity
    00:00 +3°C° 0 mm 2 mps 765 mmHg 64%
    01:00 +2°C° 0 mm 2 mps 765 mmHg 64%
    02:00 +2°C° 0 mm 2 mps 764 mmHg 64%
    03:00 +2°C° 0 mm 2 mps 764 mmHg 64%
    04:00 +3°C° 0 mm 1 mps 763 mmHg 65%
    05:00 +3°C° 0 mm 1 mps 763 mmHg 65%
    06:00 +4°C° 0 mm 1 mps 763 mmHg 64%
    07:00 +3°C° 0 mm 2 mps 763 mmHg 62%
    08:00 +4°C° 0 mm 2 mps 762 mmHg 61%
    09:00 +4°C° 0.1 mm 2 mps 762 mmHg 61%
    10:00 +5°C° 0.1 mm 2 mps 762 mmHg 60%
    11:00 +6°C° 0.1 mm 2 mps 762 mmHg 60%
    12:00 +6°C° 0.6 mm 2 mps 762 mmHg 64%
    13:00 +6°C° 0.6 mm 2 mps 761 mmHg 68%
    14:00 +6°C° 0.6 mm 2 mps 761 mmHg 71%
    15:00 +6°C° 0.4 mm 2 mps 761 mmHg 74%
    16:00 +4°C° 0.4 mm 3 mps 761 mmHg 78%
    17:00 +4°C° 0.4 mm 3 mps 760 mmHg 81%
    18:00 +4°C° 0.4 mm 3 mps 760 mmHg 83%
    19:00 +4°C° 0.4 mm 3 mps 760 mmHg 85%
    20:00 +4°C° 0.4 mm 3 mps 760 mmHg 87%
    21:00 +4°C° 0.7 mm 3 mps 760 mmHg 88%
    22:00 +4°C° 0.7 mm 3 mps 760 mmHg 89%
    23:00 +4°C° 0.7 mm 3 mps 760 mmHg 90%

    20 November, Tuesday

    Time Temperature Precipitation Wind Pressure Humidity
    00:00 +4°C° 0.9 mm 4 mps 759 mmHg 91%
    01:00 +4°C° 0.9 mm 4 mps 759 mmHg 91%
    02:00 +4°C° 0.9 mm 4 mps 759 mmHg 91%
    03:00 +4°C° 0.8 mm 4 mps 759 mmHg 91%
    04:00 +4°C° 0.8 mm 4 mps 759 mmHg 91%
    05:00 +3°C° 0.8 mm 5 mps 758 mmHg 91%
    06:00 +3°C° 0.4 mm 5 mps 759 mmHg 90%
    07:00 +3°C° 0.4 mm 5 mps 759 mmHg 90%
    08:00 +3°C° 0.4 mm 5 mps 759 mmHg 89%
    09:00 +3°C° 0.1 mm 5 mps 760 mmHg 86%
    10:00 +3°C° 0.1 mm 5 mps 760 mmHg 84%
    11:00 +3°C° 0.1 mm 5 mps 761 mmHg 81%
    12:00 +5°C° 0 mm 5 mps 761 mmHg 78%
    13:00 +5°C° 0 mm 5 mps 761 mmHg 74%
    14:00 +6°C° 0 mm 5 mps 761 mmHg 71%
    15:00 +5°C° 0 mm 5 mps 761 mmHg 74%
    16:00 +4°C° 0 mm 4 mps 761 mmHg 77%
    17:00 +3°C° 0 mm 4 mps 762 mmHg 80%
    18:00 +3°C° 0 mm 4 mps 762 mmHg 81%
    19:00 +2°C° 0 mm 3 mps 762 mmHg 83%
    20:00 +2°C° 0 mm 3 mps 762 mmHg 84%
    21:00 +2°C° 0 mm 3 mps 762 mmHg 84%
    22:00 +2°C° 0 mm 3 mps 762 mmHg 85%
    23:00 +3°C° 0 mm 2 mps 762 mmHg 85%
    Show more